EW9831 Weather Reports


time (UTC)temp
C
wind
direction
speed
KPH
gust
KPH
rain 1hr
cm
rain 24hr
cm
rain mn
cm
humidity
%
barometer
mb
20180424155605 23 320 20.9 20.9 0.00 0.00 0.00 48 1014.5
20180424155104 23 320 20.9 24.1 0.00 0.00 0.00 48 1014.5
20180424154604 23 320 24.1 24.1 0.00 0.00 0.00 48 1014.5
20180424154104 24 320 24.1 24.1 0.00 0.00 0.00 49 1014.5
20180424153604 24 320 24.1 24.1 0.00 0.00 0.00 49 1014.5
20180424153104 24 320 24.1 24.1 0.00 0.00 0.00 51 1014.6
20180424152604 24 320 24.1 24.1 0.00 0.00 0.00 51 1014.6
20180424151604 25 320 24.1 24.1 0.00 0.00 0.00 50 1014.8
20180424150604 25 320 24.1 24.1 0.00 0.00 0.00 50 1014.8
20180424150104 25 320 24.1 24.1 0.00 0.00 0.00 50 1014.8
20180424145604 25 320 24.1 24.1 0.00 0.00 0.00 50 1014.8
20180424143604 25 320 22.5 22.5 0.00 0.00 0.00 50 1014.8
20180424142604 25 320 22.5 22.5 0.00 0.00 0.00 49 1014.9
20180424141604 27 310 16.1 16.1 0.00 0.00 0.00 44 1014.9
20180424135604 27 310 16.1 16.1 0.00 0.00 0.00 44 1014.9
20180424135104 27 310 16.1 16.1 0.00 0.00 0.00 44 1014.9
20180424133604 28 310 16.1 16.1 0.00 0.00 0.00 42 1015.0
20180424133104 28 310 16.1 16.1 0.00 0.00 0.00 43 1014.9
20180424132604 28 310 16.1 16.1 0.00 0.00 0.00 43 1014.9
20180424132105 30 310 16.1 16.1 0.00 0.00 0.00 42 1014.9
20180424131604 30 290 12.9 12.9 0.00 0.00 0.00 42 1014.9
20180424131105 30 290 12.9 12.9 0.00 0.00 0.00 42 1014.9
20180424125604 30 290 12.9 12.9 0.00 0.00 0.00 42 1014.9
20180424125104 30 290 12.9 12.9 0.00 0.00 0.00 42 1014.9
20180424124604 30 290 9.7 9.7 0.00 0.00 0.00 42 1014.9
20180424123604 30 290 9.7 9.7 0.00 0.00 0.00 42 1015.0
20180424122104 30 290 9.7 11.3 0.00 0.00 0.00 42 1015.3
20180424120604 30 310 11.3 11.3 0.00 0.00 0.00 42 1015.3
20180424120104 30 310 11.3 11.3 0.00 0.00 0.00 42 1015.3
20180424115604 30 310 11.3 11.3 0.00 0.00 0.00 42 1015.3
20180424115104 30 310 11.3 11.3 0.00 0.00 0.00 42 1015.3
20180424114604 30 300 9.7 9.7 0.00 0.00 0.00 42 1015.3
20180424113604 30 300 9.7 9.7 0.00 0.00 0.00 42 1015.4
20180424113104 29 300 9.7 9.7 0.00 0.00 0.00 44 1015.5
20180424112604 29 300 9.7 9.7 0.00 0.00 0.00 44 1015.5
20180424112104 29 300 9.7 12.9 0.00 0.00 0.00 43 1015.6
20180424111604 28 300 12.9 12.9 0.00 0.00 0.00 42 1015.5
20180424111104 28 300 12.9 12.9 0.00 0.00 0.00 42 1015.5
20180424110605 28 300 12.9 12.9 0.00 0.00 0.00 42 1015.5
20180424110105 28 300 12.9 12.9 0.00 0.00 0.00 42 1015.5
20180424105604 28 300 12.9 12.9 0.00 0.00 0.00 42 1015.5
20180424105104 28 300 12.9 12.9 0.00 0.00 0.00 42 1015.5
20180424102104 27 270 4.8 11.3 0.00 0.00 0.00 42 1015.4
20180424101604 27 330 11.3 11.3 0.00 0.00 0.00 47 1015.5
20180424100105 27 330 11.3 11.3 0.00 0.00 0.00 47 1015.5
20180424095104 27 330 11.3 12.9 0.00 0.00 0.00 47 1015.5
20180424094604 27 350 12.9 12.9 0.00 0.00 0.00 47 1015.5
20180424093105 26 350 12.9 12.9 0.00 0.00 0.00 49 1015.6
20180424092604 26 350 12.9 12.9 0.00 0.00 0.00 49 1015.6
20180424092105 25 350 12.9 12.9 0.00 0.00 0.00 52 1015.7
20180424091104 25 310 8.0 8.0 0.00 0.00 0.00 52 1015.7
20180424085605 25 310 8.0 8.0 0.00 0.00 0.00 52 1015.7
20180424085104 25 310 8.0 8.0 0.00 0.00 0.00 52 1015.7
20180424084105 24 290 4.8 4.8 0.00 0.00 0.00 54 1015.6
20180424083605 24 290 4.8 4.8 0.00 0.00 0.00 54 1015.6
20180424081604 20 0 1.6 3.2 0.00 0.00 0.00 68 1015.6
20180424081104 20 0 1.6 3.2 0.00 0.00 0.00 68 1015.6
20180424080105 20 0 1.6 3.2 0.00 0.00 0.00 68 1015.6
20180424075104 20 0 1.6 3.2 0.00 0.00 0.00 68 1015.6
20180424074604 20 0 3.2 3.2 0.00 0.00 0.00 68 1015.6
20180424074105 20 0 3.2 3.2 0.00 0.00 0.00 69 1015.5
20180424073105 19 0 3.2 3.2 0.00 0.00 0.00 72 1015.4
20180424072104 18 0 3.2 3.2 0.00 0.00 0.00 74 1015.4
20180424070105 16 10 0.0 0.0 0.00 0.00 0.00 80 1015.0
20180424065105 16 10 0.0 0.0 0.00 0.00 0.00 80 1015.0
20180424064604 16 10 0.0 0.0 0.00 0.00 0.00 80 1015.0
20180424062105 16 10 0.0 0.0 0.00 0.00 0.00 80 1014.8
20180424061605 16 10 0.0 0.0 0.00 0.00 0.00 79 1014.7
20180424061104 16 10 0.0 0.0 0.00 0.00 0.00 79 1014.7
20180424055105 16 10 0.0 0.0 0.00 0.00 0.00 79 1014.7
20180424054605 16 10 0.0 0.0 0.00 0.00 0.00 79 1014.7
20180424053604 16 10 0.0 0.0 0.00 0.00 0.00 78 1014.7
20180424053105 16 10 0.0 0.0 0.00 0.00 0.00 78 1014.6
20180424052602 16 10 0.0 0.0 0.00 0.00 0.00 78 1014.6
20180424051601 16 10 0.0 0.0 0.00 0.00 0.00 78 1014.4
20180424051101 16 10 0.0 0.0 0.00 0.00 0.00 78 1014.4
20180424045602 16 10 0.0 0.0 0.00 0.00 0.00 78 1014.4
20180424045102 16 10 0.0 0.0 0.00 0.00 0.00 78 1014.4
20180424042602 16 10 0.0 0.0 0.00 0.00 0.00 77 1014.4
20180424041102 16 10 0.0 0.0 0.00 0.00 0.00 76 1014.5
20180424040602 16 10 0.0 0.0 0.00 0.00 0.00 76 1014.5
20180424040102 16 10 0.0 0.0 0.00 0.00 0.00 76 1014.5
20180424035602 16 10 0.0 0.0 0.00 0.00 0.00 76 1014.5
20180424035102 16 10 0.0 4.8 0.00 0.00 0.00 76 1014.5
20180424034602 16 10 4.8 4.8 0.00 0.00 0.00 76 1014.5
20180424034102 17 10 4.8 4.8 0.00 0.00 0.00 75 1014.5
20180424033602 17 10 4.8 4.8 0.00 0.00 0.00 75 1014.5
20180424033102 17 10 4.8 4.8 0.00 0.00 0.00 76 1014.4
20180424032102 17 10 4.8 4.8 0.00 0.00 0.00 74 1014.3
20180424031602 17 10 4.8 4.8 0.00 0.00 0.00 74 1014.3
20180424031102 17 10 4.8 4.8 0.00 0.00 0.00 74 1014.3
20180424030602 17 10 4.8 4.8 0.00 0.00 0.00 74 1014.3
20180424024602 17 300 1.6 1.6 0.00 0.00 0.00 74 1014.2
20180424022102 18 300 1.6 4.8 0.00 0.00 0.00 72 1014.4
20180424021602 18 350 4.8 4.8 0.00 0.00 0.00 72 1014.4
20180424021102 18 350 4.8 4.8 0.00 0.00 0.00 72 1014.4
20180424020602 18 350 4.8 4.8 0.00 0.00 0.00 72 1014.4
20180424020102 18 350 4.8 4.8 0.00 0.00 0.00 72 1014.4
20180424015602 18 350 4.8 4.8 0.00 0.00 0.00 72 1014.4
20180424014602 18 20 0.0 0.0 0.00 0.00 0.00 72 1014.4
20180424014102 18 20 0.0 0.0 0.00 0.00 0.00 72 1014.5
20180424013602 18 20 0.0 0.0 0.00 0.00 0.00 72 1014.5
20180424012602 18 20 0.0 0.0 0.00 0.00 0.00 72 1014.6
20180424011602 18 20 4.8 4.8 0.00 0.00 0.00 70 1014.7
20180424011102 18 20 4.8 4.8 0.00 0.00 0.00 70 1014.7
20180424010602 18 20 4.8 4.8 0.00 0.00 0.00 70 1014.7
20180424005602 18 20 4.8 4.8 0.00 0.00 0.00 70 1014.7
20180424004602 18 350 0.0 0.0 0.00 0.00 0.00 70 1014.7
20180424004102 18 350 0.0 0.0 0.00 0.00 0.00 70 1014.7
20180424003602 18 350 0.0 0.0 0.00 0.00 0.00 70 1014.7
20180424002602 18 350 0.0 0.0 0.00 0.00 0.00 70 1014.8
20180424001602 18 350 0.0 0.0 0.00 0.00 0.00 69 1014.9
20180424000602 18 350 0.0 0.0 0.00 0.00 0.00 69 1014.9
20180423235102 18 350 0.0 0.0 0.00 0.00 0.00 69 1014.9
20180423234102 18 350 0.0 0.0 0.00 0.00 0.00 69 1014.9
20180423232602 19 350 0.0 0.0 0.00 0.00 0.00 68 1014.9
20180423232102 19 350 0.0 0.0 0.00 0.00 0.00 67 1015.0
20180423231602 19 350 0.0 0.0 0.00 0.00 0.00 67 1015.0
20180423231102 19 350 0.0 0.0 0.00 0.00 0.00 67 1015.0
20180423230602 19 350 0.0 0.0 0.00 0.00 0.00 67 1015.0
20180423230102 19 350 0.0 0.0 0.00 0.00 0.00 67 1015.0
20180423225602 19 350 0.0 0.0 0.00 0.00 0.00 67 1015.0
20180423225102 19 350 0.0 3.2 0.00 0.00 0.00 67 1015.0
20180423223602 19 350 1.6 3.2 0.00 0.00 0.00 67 1015.1
20180423222603 19 350 1.6 3.2 0.00 0.00 0.00 67 1015.1
20180423222102 20 350 1.6 4.8 0.00 0.00 0.00 65 1015.4
20180423221102 20 350 4.8 4.8 0.00 0.00 0.00 65 1015.4
20180423220102 20 350 4.8 4.8 0.00 0.00 0.00 65 1015.4
20180423215102 20 350 4.8 4.8 0.00 0.00 0.00 65 1015.4
20180423214103 20 350 4.8 4.8 0.00 0.00 0.00 65 1015.4
20180423212602 20 350 4.8 4.8 0.00 0.00 0.00 64 1015.5
20180423212103 21 350 4.8 11.3 0.00 0.00 0.00 61 1015.2
20180423211603 21 340 11.3 11.3 0.00 0.00 0.00 61 1015.2
20180423211103 21 340 11.3 11.3 0.00 0.00 0.00 61 1015.2
20180423210602 21 340 11.3 11.3 0.00 0.00 0.00 61 1015.2
20180423210102 21 340 11.3 11.3 0.00 0.00 0.00 61 1015.2
20180423205103 21 340 11.3 11.3 0.00 0.00 0.00 61 1015.2
20180423204602 21 320 8.0 8.0 0.00 0.00 0.00 61 1015.2
20180423204102 21 320 8.0 8.0 0.00 0.00 0.00 61 1015.2
20180423203602 21 320 8.0 8.0 0.00 0.00 0.00 60 1015.0
20180423202602 21 320 8.0 8.0 0.00 0.00 0.00 59 1015.1
20180423202102 22 320 8.0 11.3 0.00 0.00 0.00 56 1014.8
20180423201603 22 320 11.3 11.3 0.00 0.00 0.00 56 1014.8
20180423200103 22 320 11.3 11.3 0.00 0.00 0.00 56 1014.8
20180423195602 22 320 11.3 11.3 0.00 0.00 0.00 56 1014.8
20180423193602 23 290 8.0 8.0 0.00 0.00 0.00 54 1014.7
20180423193104 23 290 8.0 8.0 0.00 0.00 0.00 54 1014.7
20180423192603 23 290 8.0 8.0 0.00 0.00 0.00 52 1014.7
20180423191603 24 300 8.0 8.0 0.00 0.00 0.00 50 1014.5
20180423191102 24 300 8.0 8.0 0.00 0.00 0.00 50 1014.5
20180423190602 24 300 8.0 8.0 0.00 0.00 0.00 50 1014.5
20180423185602 24 300 8.0 8.0 0.00 0.00 0.00 50 1014.5
20180423184102 25 280 8.0 8.0 0.00 0.00 0.00 48 1014.5
20180423182603 25 280 8.0 8.0 0.00 0.00 0.00 47 1014.5
20180423182103 25 280 8.0 8.0 0.00 0.00 0.00 47 1014.4
20180423181603 25 300 8.0 8.0 0.00 0.00 0.00 47 1014.4
20180423181103 25 300 8.0 8.0 0.00 0.00 0.00 47 1014.4
20180423180602 25 300 8.0 8.0 0.00 0.00 0.00 47 1014.4
20180423180103 25 300 8.0 8.0 0.00 0.00 0.00 47 1014.4
20180423175602 25 300 8.0 8.0 0.00 0.00 0.00 47 1014.4
20180423175102 25 300 8.0 12.9 0.00 0.00 0.00 47 1014.4
20180423174103 25 320 12.9 12.9 0.00 0.00 0.00 47 1014.6
20180423172602 25 320 12.9 12.9 0.00 0.00 0.00 47 1014.7
20180423171603 26 310 14.5 14.5 0.00 0.00 0.00 43 1014.6
20180423165103 26 310 14.5 16.1 0.00 0.00 0.00 43 1014.6
20180423164103 26 320 16.1 16.1 0.00 0.00 0.00 43 1014.6
20180423163603 26 320 16.1 16.1 0.00 0.00 0.00 42 1014.5
20180423162103 26 320 16.1 16.1 0.00 0.00 0.00 43 1014.5
20180423161102 26 330 16.1 16.1 0.00 0.00 0.00 43 1014.5